Wind_Speed
14 14 15 16 16 17 18 18 19 22 23 23 22 21 20 20 21 24 26 28 30 32 35 37 38 39 41 42 42 43 42 41 40 40 38 35 33 32 28 25 22 20 21 22
11 12 13 14 14 15 17 18 19 21 22 23 24 23 22 22 24 26 28 30 32 35 37 40 41 43 44 44 44 45 45 43 41 39 38 35 34 31 27 23 21 20 19 20
9 10 11 12 13 13 15 16 18 20 22 23 25 25 24 25 26 28 31 33 35 37 39 41 43 44 44 44 44 45 45 44 42 40 37 35 34 33 29 26 24 23 23 22
7 8 9 10 11 12 13 14 16 18 20 21 22 23 23 25 26 29 31 32 34 35 37 38 38 39 41 41 42 43 43 42 40 38 37 37 36 34 33 30 28 27 26 26
4 5 6 8 8 9 10 10 11 12 14 14 16 18 19 20 22 24 26 28 30 31 32 31 31 33 35 36 38 39 40 40 40 39 39 39 39 38 36 35 34 32 30 30
3 4 5 5 6 6 7 7 8 9 10 11 13 15 16 17 19 20 23 25 26 29 30 31 32 33 35 37 39 40 41 42 43 43 44 44 43 42 42 41 40 39 37 36
3 2 3 4 5 6 7 9 10 10 9 11 13 15 16 17 19 21 23 25 28 30 32 34 34 35 37 38 39 41 43 44 45 46 47 47 47 47 47 46 45 45 44 43
2 2 2 4 5 7 9 11 13 13 13 14 15 16 17 19 22 24 27 29 31 33 35 36 37 38 39 40 41 43 44 45 47 48 49 50 51 51 51 51 51 50 50 49
3 3 4 5 7 8 10 11 12 14 15 16 16 17 19 22 24 27 30 32 34 36 37 39 40 42 43 44 45 47 49 50 50 52 53 53 54 55 55 56 56 56 56 56
5 5 6 7 9 9 10 11 13 15 17 18 18 20 23 25 28 31 33 35 37 39 41 42 44 45 47 48 50 52 53 55 55 55 55 54 54 55 56 56 57 58 59 60
7 7 8 9 9 10 11 13 15 17 19 21 24 25 26 29 31 34 36 38 40 42 44 46 48 50 52 54 56 56 57 57 56 56 55 54 53 53 52 51 51 53 55 58
8 9 9 10 10 11 13 15 17 19 21 23 26 27 29 32 34 36 38 41 43 45 48 50 52 54 56 57 58 58 58 57 56 56 55 54 52 50 47 45 44 45 47 50
9 10 11 11 12 13 15 17 18 20 22 24 27 29 32 34 36 38 41 44 46 49 51 53 55 56 58 58 58 58 58 58 57 56 55 53 50 47 45 43 42 41 40 41
11 11 11 12 12 14 15 17 19 21 23 26 28 30 32 35 37 40 43 46 48 50 52 53 55 57 57 57 57 57 57 58 57 56 55 53 51 48 46 44 42 41 40 38
12 13 13 13 14 15 16 18 21 23 25 28 30 32 34 37 40 43 45 48 49 50 52 54 55 55 55 55 56 56 57 58 57 57 56 54 53 51 49 47 44 43 41 40
13 14 15 15 15 16 18 20 23 25 27 29 31 33 36 39 42 45 47 49 50 51 53 54 54 53 53 54 55 56 57 57 57 57 56 55 54 52 51 49 47 45 44 42
13 14 15 16 16 17 20 22 24 26 28 31 34 36 39 40 44 47 49 50 51 53 53 53 52 52 53 54 56 56 56 56 56 56 55 54 53 52 50 49 47 46 44 44
12 14 16 17 18 19 22 24 26 27 29 32 35 38 41 43 45 48 51 52 53 53 52 52 51 52 53 55 56 57 57 56 56 55 53 51 50 48 47 47 46 45 44 43
13 16 17 18 20 21 24 26 28 30 31 34 37 40 43 45 45 46 49 51 52 52 52 52 52 53 54 56 57 57 56 55 55 53 51 49 48 46 44 44 43 42 42 41
16 17 19 21 23 25 26 27 30 32 33 36 39 42 45 48 49 49 51 52 53 52 52 53 53 53 55 56 57 56 55 54 53 52 49 47 45 43 41 39 38 38 39 38
19 20 21 22 23 24 26 28 31 33 36 38 41 43 46 49 51 53 54 54 54 53 53 53 52 53 55 56 56 55 54 53 53 50 47 44 41 39 37 35 33 32 34 35
20 21 22 23 23 25 27 29 31 33 35 38 41 44 47 49 51 53 54 54 53 52 52 52 52 53 55 56 56 54 53 52 51 48 45 41 38 35 32 30 28 27 28 30
21 22 23 23 25 26 28 30 31 33 36 38 41 44 47 50 52 53 54 54 53 51 51 51 51 53 54 56 56 53 52 51 49 45 41 38 33 30 27 24 22 22 23 24
21 22 22 23 25 26 28 29 32 34 37 39 42 45 48 50 52 53 54 54 52 51 50 50 50 52 53 55 55 53 51 49 46 43 38 35 30 26 23 19 16 16 17 19
22 22 23 24 25 27 28 31 33 35 37 40 43 45 48 50 52 53 54 54 52 50 49 49 50 51 53 54 54 52 50 47 44 41 37 32 28 25 21 16 12 9 9 12
22 23 24 25 27 28 30 32 34 35 37 40 42 45 47 50 52 53 54 53 52 50 48 48 48 50 52 53 53 52 50 46 43 40 35 31 27 24 20 16 11 6 2 6
Wind_Direction
250 252 255 259 259 256 254 251 249 250 252 256 259 263 265 266 265 266 270 274 277 280 282 283 286 288 290 292 294 296 297 300 302 304 308 313 313 311 306 298 288 275 254 246
253 256 260 261 260 257 256 256 256 256 259 261 262 265 267 268 270 273 275 277 279 281 283 285 288 288 290 291 292 295 295 297 299 302 305 309 308 308 305 299 293 287 273 257
267 269 266 263 263 264 267 268 268 270 271 271 271 272 273 274 275 277 278 279 282 283 284 284 285 286 286 288 291 292 292 293 296 298 301 303 305 305 302 296 290 285 279 267
273 270 263 262 263 272 275 279 280 280 282 283 283 283 282 282 281 281 282 283 287 288 288 287 286 287 287 288 290 291 291 291 292 293 296 298 300 300 297 291 287 283 278 273
269 264 262 266 272 280 289 292 295 297 298 296 294 291 290 288 286 286 286 288 291 293 295 295 293 293 294 292 292 292 291 290 290 291 292 293 293 292 290 287 284 280 276 271
309 281 280 279 280 292 308 313 316 318 314 308 306 301 298 295 295 295 294 295 297 298 300 302 300 297 296 295 294 292 292 290 289 289 289 288 288 286 284 282 279 275 271 268
347 330 284 287 295 308 314 319 317 314 312 312 310 303 299 299 300 300 301 302 303 304 304 305 304 301 299 297 296 294 292 290 289 288 287 286 284 283 280 277 274 271 267 264
33 7 303 289 295 306 315 315 313 313 314 311 308 305 299 299 302 304 306 306 307 307 307 306 304 303 301 298 297 295 293 291 288 286 285 283 282 280 277 274 272 268 265 262
21 357 328 316 314 317 319 322 323 317 317 315 311 309 306 303 305 308 310 311 311 311 310 308 308 306 305 302 301 298 296 294 291 288 286 283 281 279 276 273 270 267 264 261
3 352 340 333 330 333 330 326 324 323 323 324 322 317 315 312 312 314 315 315 315 315 314 313 312 310 308 307 305 303 301 299 297 295 293 290 287 283 280 276 271 267 263 260
353 349 343 341 339 336 330 327 326 325 324 323 323 322 321 319 319 319 319 319 319 318 317 316 316 315 314 312 311 308 306 304 302 300 298 295 292 289 285 281 275 270 264 259
350 350 346 342 338 334 329 326 324 324 324 325 325 325 325 324 323 323 322 322 322 321 320 320 319 318 316 315 313 311 309 307 305 302 300 298 295 292 289 284 279 274 268 262
347 346 343 339 336 332 327 326 326 327 329 329 328 327 327 326 325 325 325 325 324 324 323 322 321 320 318 316 314 312 310 308 306 304 302 299 296 292 288 285 281 277 273 267
340 340 339 336 333 329 326 327 330 333 333 331 330 330 330 329 329 328 327 327 326 325 324 323 322 320 318 317 315 313 312 310 307 305 302 299 296 292 288 284 280 277 273 269
336 336 335 333 332 330 331 332 334 336 335 333 333 333 334 333 332 330 329 329 328 327 325 324 323 322 320 318 317 315 313 310 307 304 301 298 295 291 287 282 278 274 271 268
332 330 329 330 331 332 332 334 336 337 336 335 336 337 337 336 334 332 331 331 330 328 327 327 326 324 323 321 319 317 315 311 308 304 301 297 294 291 287 283 278 273 268 264
324 321 322 325 328 330 330 333 335 337 337 338 339 339 338 338 336 334 333 332 331 330 329 329 328 327 325 323 321 319 317 313 310 307 303 299 295 290 286 282 279 274 267 262
318 316 319 323 328 332 332 333 335 338 339 339 339 338 339 339 339 335 334 333 333 332 331 331 330 328 327 325 324 322 319 317 314 311 306 301 297 292 286 283 278 273 267 261
319 319 321 326 331 333 333 334 335 337 339 338 338 339 339 339 340 337 335 334 334 334 333 333 332 330 329 328 326 324 322 319 317 314 310 304 299 294 289 284 278 272 266 260
321 321 324 329 332 333 333 333 334 336 338 338 339 340 340 340 340 340 338 338 338 337 335 334 333 332 331 330 329 327 325 323 320 318 314 308 303 297 292 286 280 272 264 258
323 324 326 328 329 330 330 332 333 335 337 338 339 340 341 342 341 341 341 341 339 338 336 335 335 334 333 333 332 330 328 327 325 323 319 314 308 301 295 287 280 273 263 255
322 323 325 326 328 329 330 331 333 334 335 337 339 340 342 343 343 343 342 342 340 339 338 337 337 336 336 336 335 334 332 331 330 328 326 322 315 308 300 291 281 273 263 253
318 321 323 326 327 328 329 329 331 332 335 337 339 341 343 344 344 344 344 343 342 340 339 339 339 339 339 339 340 338 338 337 336 335 333 330 326 319 311 299 286 274 262 252
315 319 321 323 324 325 327 329 330 333 335 337 339 341 344 345 346 345 345 344 343 341 341 341 342 343 343 343 344 344 344 343 343 342 341 341 339 334 326 313 297 278 261 248
313 317 320 322 324 326 328 329 331 333 335 337 339 342 344 346 346 346 345 345 344 343 343 343 344 345 347 348 349 349 349 349 349 350 350 350 351 351 347 339 325 295 261 240
311 315 319 322 324 327 328 330 331 332 334 336 339 341 344 345 347 347 347 346 346 345 345 345 347 348 350 351 352 353 353 353 353 354 356 359 1 1 3 2 359 350 279 213
Height
5854 5856 5856 5857 5857 5858 5858 5858 5858 5858 5858 5858 5858 5858 5858 5858 5859 5858 5858 5857 5855 5854 5851 5848 5845 5842 5840 5838 5835 5832 5828 5825 5822 5819 5816 5813 5809 5806 5803 5802 5799 5798 5798 5798
5853 5854 5854 5854 5855 5855 5855 5855 5855 5855 5855 5855 5854 5855 5855 5855 5854 5854 5853 5851 5849 5847 5845 5842 5838 5835 5832 5829 5826 5823 5820 5817 5815 5812 5809 5807 5804 5802 5800 5798 5797 5796 5795 5795
5852 5853 5853 5853 5853 5853 5853 5853 5853 5852 5851 5851 5851 5851 5851 5850 5850 5849 5847 5845 5843 5840 5837 5833 5830 5826 5823 5821 5817 5815 5812 5809 5807 5804 5802 5800 5798 5796 5795 5793 5792 5792 5791 5790
5850 5851 5851 5851 5851 5851 5851 5851 5850 5849 5848 5847 5847 5846 5846 5845 5844 5843 5841 5838 5836 5832 5829 5824 5821 5818 5815 5812 5809 5806 5803 5800 5798 5796 5794 5792 5791 5789 5788 5787 5787 5786 5785 5784
5849 5849 5849 5849 5849 5849 5849 5848 5848 5847 5846 5845 5844 5843 5843 5840 5839 5837 5834 5831 5828 5825 5821 5817 5813 5810 5807 5803 5800 5797 5794 5791 5789 5787 5785 5783 5782 5781 5780 5779 5779 5778 5778 5777
5848 5848 5848 5848 5848 5848 5848 5847 5846 5845 5844 5844 5842 5840 5839 5836 5834 5831 5829 5825 5822 5819 5815 5810 5807 5803 5799 5795 5792 5788 5785 5782 5779 5776 5774 5772 5771 5770 5769 5768 5768 5768 5767 5767
5848 5848 5847 5847 5847 5847 5846 5846 5845 5844 5842 5841 5839 5837 5836 5832 5829 5826 5823 5820 5816 5812 5808 5804 5799 5795 5791 5787 5783 5779 5776 5772 5768 5764 5761 5759 5757 5756 5755 5754 5754 5754 5754 5754
5848 5847 5847 5846 5846 5845 5844 5844 5843 5841 5839 5838 5836 5833 5832 5828 5825 5821 5817 5813 5809 5805 5800 5796 5791 5787 5782 5778 5773 5768 5764 5760 5756 5752 5748 5744 5742 5740 5738 5737 5737 5737 5737 5738
5847 5847 5846 5845 5844 5843 5842 5841 5839 5838 5836 5834 5831 5829 5827 5823 5820 5816 5811 5806 5802 5797 5792 5787 5782 5776 5771 5765 5760 5754 5749 5745 5740 5736 5732 5728 5725 5722 5720 5718 5717 5717 5718 5719
5847 5846 5845 5844 5842 5841 5840 5838 5837 5835 5832 5829 5827 5825 5822 5818 5814 5809 5804 5799 5793 5788 5782 5776 5770 5764 5758 5751 5744 5738 5732 5726 5721 5716 5712 5708 5705 5701 5699 5697 5696 5695 5696 5697
5846 5845 5844 5842 5840 5839 5838 5836 5834 5831 5829 5826 5823 5822 5816 5811 5806 5801 5796 5790 5784 5778 5772 5764 5757 5749 5742 5735 5727 5720 5714 5707 5701 5696 5691 5687 5683 5680 5677 5675 5673 5672 5672 5673
5845 5844 5842 5841 5839 5837 5835 5833 5831 5829 5826 5822 5818 5818 5810 5805 5799 5794 5788 5781 5775 5767 5759 5751 5743 5735 5727 5719 5711 5704 5696 5689 5683 5677 5672 5668 5664 5660 5657 5655 5653 5652 5652 5652
5844 5843 5841 5840 5840 5837 5833 5830 5828 5826 5822 5818 5814 5813 5804 5799 5793 5786 5780 5772 5765 5756 5748 5739 5730 5722 5713 5704 5696 5687 5680 5672 5665 5659 5654 5649 5646 5643 5640 5638 5636 5635 5634 5634
5843 5841 5841 5840 5837 5834 5831 5828 5825 5822 5818 5814 5810 5805 5800 5793 5786 5779 5771 5763 5755 5747 5737 5728 5719 5709 5700 5690 5681 5673 5664 5656 5648 5642 5636 5631 5628 5625 5623 5621 5619 5619 5618 5618
5841 5840 5838 5837 5834 5832 5829 5826 5822 5819 5815 5810 5805 5800 5794 5787 5779 5771 5763 5755 5746 5737 5728 5718 5707 5697 5688 5678 5668 5659 5650 5641 5632 5625 5619 5613 5609 5606 5604 5603 5602 5602 5602 5602
5840 5838 5836 5834 5832 5829 5826 5822 5819 5815 5811 5806 5801 5795 5788 5781 5772 5763 5754 5746 5737 5727 5717 5707 5696 5686 5676 5666 5656 5646 5636 5626 5617 5608 5601 5595 5590 5587 5584 5583 5583 5583 5584 5585
5838 5837 5834 5832 5830 5827 5823 5820 5816 5812 5807 5801 5795 5790 5782 5775 5766 5756 5746 5737 5727 5717 5707 5696 5686 5675 5664 5654 5643 5633 5622 5611 5601 5591 5583 5576 5570 5567 5564 5563 5562 5563 5564 5566
5838 5835 5832 5830 5827 5824 5822 5816 5812 5808 5803 5796 5790 5783 5776 5769 5760 5749 5738 5728 5718 5707 5697 5686 5676 5665 5654 5643 5631 5620 5608 5597 5586 5576 5566 5559 5552 5548 5545 5543 5543 5543 5545 5547
5836 5833 5830 5827 5823 5820 5817 5811 5807 5802 5798 5792 5785 5778 5770 5762 5755 5745 5733 5722 5711 5699 5687 5677 5666 5655 5643 5632 5620 5608 5595 5583 5572 5561 5551 5543 5536 5531 5527 5525 5524 5525 5526 5529
5833 5830 5827 5823 5819 5815 5813 5808 5802 5798 5793 5786 5779 5771 5763 5754 5746 5738 5726 5714 5702 5690 5679 5668 5657 5646 5634 5622 5609 5597 5584 5571 5559 5547 5537 5528 5520 5515 5511 5508 5507 5507 5509 5513
5829 5826 5822 5819 5816 5813 5809 5804 5799 5794 5789 5781 5773 5766 5757 5747 5737 5726 5715 5704 5693 5682 5671 5660 5649 5638 5626 5613 5600 5587 5573 5560 5548 5535 5524 5514 5506 5500 5496 5493 5492 5492 5494 5498
5825 5822 5819 5816 5812 5810 5804 5799 5795 5790 5783 5776 5769 5760 5752 5742 5731 5720 5709 5698 5687 5676 5665 5654 5643 5631 5618 5605 5591 5578 5564 5551 5537 5525 5513 5503 5495 5488 5483 5480 5480 5480 5481 5484
5822 5819 5815 5812 5810 5805 5800 5795 5791 5785 5778 5771 5764 5755 5746 5736 5726 5715 5704 5692 5681 5670 5659 5648 5637 5625 5612 5598 5584 5570 5556 5543 5529 5516 5505 5495 5486 5479 5474 5471 5470 5469 5471 5474
5818 5815 5812 5808 5805 5801 5796 5791 5786 5780 5773 5766 5758 5750 5741 5731 5720 5709 5698 5687 5676 5665 5654 5643 5632 5620 5607 5593 5578 5564 5550 5536 5523 5511 5499 5489 5481 5474 5468 5465 5463 5462 5463 5466
5814 5810 5807 5804 5800 5796 5791 5786 5781 5774 5768 5761 5753 5744 5735 5726 5716 5705 5694 5683 5671 5660 5650 5639 5627 5615 5602 5589 5575 5560 5546 5533 5520 5508 5497 5488 5479 5473 5467 5462 5460 5459 5459 5461
5809 5806 5803 5800 5795 5791 5787 5781 5776 5770 5763 5756 5749 5740 5731 5722 5712 5701 5690 5678 5667 5656 5646 5635 5624 5612 5599 5586 5572 5558 5544 5531 5519 5508 5497 5489 5481 5474 5469 5464 5461 5459 5459 5461